Flight Track Log - Related Links

Times and Time Zones

All times are in EDT time to prevent confusion due to time zone crossing. See the AMF1324 flight status page for this flight to view local times or setup timezone preferences in your user account.

Time Position Orientation Groundspeed Altitude Reporting Facility
EDT Latitude Longitude Course Direction KTS MPH feet Rate Location/Type
Thu 08:58:21 AM 42.2083 -76.0686 307° West 146 168 5,600  Level Cleveland Center
Thu 08:59:23 AM 42.2269 -76.1022 307° West 113 130 7,400 1,728 Climbing Cleveland Center
Thu 09:00:26 AM 42.2450 -76.1444 300° West 125 144 9,200 1,728 Climbing Cleveland Center
Thu 09:01:28 AM 42.2658 -76.2011 296° West 135 155 11,000 1,403 Climbing Cleveland Center
Thu 09:02:30 AM 42.2850 -76.2506 298° West 142 163 12,100 484 Climbing Cleveland Center
Thu 09:03:32 AM 42.3067 -76.3094 296° West 162 186 12,000  Descending Cleveland Center
Thu 09:04:34 AM 42.3297 -76.3717 297° West 176 203 12,100 48 Climbing Cleveland Center
Thu 09:05:36 AM 42.3547 -76.4378 297° West 183 211 12,100  Level Cleveland Center
Thu 09:06:38 AM 42.3792 -76.5003 298° West 184 212 12,100  Level Cleveland Center
Thu 09:07:40 AM 42.4031 -76.5614 298° West 184 212 12,100  Level Cleveland Center
Thu 09:08:42 AM 42.4256 -76.6233 296° West 185 213 12,100  Level Cleveland Center
Thu 09:09:44 AM 42.4533 -76.6947 298° West 184 212 12,100  Level Cleveland Center
Thu 09:10:46 AM 42.4756 -76.7564 296° West 184 212 12,100  Level Cleveland Center
Thu 09:11:48 AM 42.4994 -76.8183 298° West 185 213 12,100  Level Cleveland Center
Thu 09:12:50 AM 42.5225 -76.8800 297° West 185 213 12,100  Level Cleveland Center
Thu 09:13:52 AM 42.5458 -76.9414 297° West 185 213 12,100  Level Cleveland Center
Thu 09:14:54 AM 42.5656 -77.0047 293° West 185 213 12,100  Level Cleveland Center
Thu 09:15:56 AM 42.5783 -77.0850 282° West 184 212 12,100  Level Cleveland Center
Thu 09:16:59 AM 42.5925 -77.1536 286° West 185 213 12,100  Level Cleveland Center
Thu 09:18:01 AM 42.6086 -77.2206 288° West 187 215 12,100  Level Cleveland Center
Thu 09:19:03 AM 42.6244 -77.2858 288° West 186 214 12,100  Level Cleveland Center
Thu 09:20:05 AM 42.6392 -77.3517 287° West 184 212 12,100  Level Cleveland Center
Thu 09:21:07 AM 42.6569 -77.4297 287° West 183 211 12,100  Level Cleveland Center
Thu 09:22:09 AM 42.6708 -77.4928 287° West 183 211 12,100  Level Cleveland Center
Thu 09:23:11 AM 42.6853 -77.5569 287° West 181 208 12,100  Level Cleveland Center
Thu 09:24:13 AM 42.6983 -77.6219 285° West 181 208 12,100  Level Cleveland Center
Thu 09:25:15 AM 42.7131 -77.6833 288° West 179 206 12,100  Level Cleveland Center
Thu 09:26:17 AM 42.7303 -77.7594 287° West 179 206 12,100  Level Cleveland Center
Thu 09:27:19 AM 42.7447 -77.8233 287° West 179 206 12,100 -242 Level Cleveland Center
Thu 09:28:21 AM 42.7586 -77.8878 286° West 179 206 11,600 -484 Descending Cleveland Center
Thu 09:29:23 AM 42.7717 -77.9522 285° West 179 206 11,100 -290 Descending Cleveland Center
Thu 09:30:25 AM 42.7847 -78.0147 286° West 173 199 11,000  Descending Cleveland Center
Thu 09:31:27 AM 42.8011 -78.0869 287° West 169 194 11,100 48 Climbing Cleveland Center
Thu 09:32:29 AM 42.8150 -78.1472 287° West 169 194 11,100 -387 Level Cleveland Center
Thu 09:33:31 AM 42.8275 -78.2083 286° West 168 193 10,300 -1,016 Descending Cleveland Center
Thu 09:34:33 AM 42.8408 -78.2697 287° West 172 198 9,000 -1,403 Descending Cleveland Center
Thu 09:35:35 AM 42.8539 -78.3333 286° West 156 180 7,400 -1,597 Descending Cleveland Center
Thu 09:36:37 AM 42.8672 -78.3894 288° West 152 175 5,700 -1,597 Descending Cleveland Center
Thu 09:37:39 AM 42.8808 -78.4431 289° West 147 169 4,100 -823 Descending Cleveland Center
Thu 09:38:41 AM 42.9322 -78.4517 353° North 172 198 4,000 -387 Descending Cleveland Center
Thu 09:39:43 AM 42.9719 -78.4736 338° Northwest 154 177 3,300 -726 Descending Cleveland Center
Thu 09:40:45 AM 43.0072 -78.4939 337° Northwest 150 173 2,500 -484 Descending Cleveland Center
Thu 09:41:47 AM 43.0392 -78.5244 325° Northwest 149 171 2,300 -97 Descending Cleveland Center
Thu 09:42:49 AM 43.0633 -78.5669 308° West 144 166 2,300 81 Level Cleveland Center
Thu 09:44:16 AM 43.0189 -78.6281 225° Southwest 118 136 2,500 -45 Climbing Cleveland Center
Thu 09:45:03 AM 43.0000 -78.6500 220° Southwest 111 128 2,200 -444 Descending Buffalo TRACON
Thu 09:46:04 AM 42.9833 -78.6833 236° Southwest 99 114 1,700 -545 Descending Buffalo TRACON
Thu 09:47:04 AM 42.9667 -78.7000 216° Southwest 105 121 1,100 -600 Descending Buffalo TRACON

Login

Don't have an account? Register now (free) for customized features, flight alerts, and more!